DG1GMY-13 Weather Reports


time (UTC)temp
C
wind
direction
speed
KPH
gust
KPH
rain 1hr
cm
rain 24hr
cm
rain mn
cm
humidity
%
barometer
mb
20260506192641 10 0.0 0.0 0.00 0.00 0.00 100 1010.4
20260506185635 10 0.0 0.0 0.00 0.00 0.00 100 1010.2
20260506182629 10 0.0 0.0 0.00 0.00 0.00 100 1009.7
20260506175623 11 0.0 0.0 0.00 0.00 0.00 100 1009.3
20260506172617 12 0.0 0.0 0.00 0.00 0.00 100 1008.7
20260506165611 12 0.0 0.0 0.00 0.00 0.00 100 1008.6
20260506162605 12 0.0 0.0 0.00 0.00 0.00 100 1008.6
20260506155559 11 0.0 0.0 0.00 0.00 0.00 100 1008.9
20260506152553 11 0.0 0.0 0.00 0.00 0.00 100 1008.9
20260506145547 12 0.0 0.0 0.00 0.00 0.00 100 1008.9
20260506142541 13 0.0 0.0 0.00 0.00 0.00 100 1008.6
20260506135535 13 0.0 0.0 0.00 0.00 0.00 100 1008.3
20260506132529 15 0.0 0.0 0.00 0.00 0.00 79 1007.7
20260506125523 16 0.0 0.0 0.00 0.00 0.00 68 1007.4
20260506122517 19 0.0 0.0 0.00 0.00 0.00 63 1007.1
20260506115511 17 0.0 0.0 0.00 0.00 0.00 64 1007.2
20260506112505 17 0.0 0.0 0.00 0.00 0.00 67 1007.2
20260506105500 18 0.0 0.0 0.00 0.00 0.00 67 1007.4
20260506102456 17 0.0 0.0 0.00 0.00 0.00 73 1007.8
20260506095448 16 0.0 0.0 0.00 0.00 0.00 77 1007.7
20260506092442 15 0.0 0.0 0.00 0.00 0.00 83 1007.8
20260506085436 16 0.0 0.0 0.00 0.00 0.00 78 1007.8
20260506082430 16 0.0 0.0 0.00 0.00 0.00 82 1007.7
20260506072418 15 0.0 0.0 0.00 0.00 0.00 86 1007.4
20260506062406 13 0.0 0.0 0.00 0.00 0.00 96 1007.6
20260506042342 11 0.0 0.0 0.00 0.00 0.00 100 1007.9
20260506035336 11 0.0 0.0 0.00 0.00 0.00 100 1007.7
20260506032330 11 0.0 0.0 0.00 0.00 0.00 100 1007.9
20260506025324 12 0.0 0.0 0.00 0.00 0.00 100 1008.1
20260506022318 12 0.0 0.0 0.00 0.00 0.00 100 1008.5
20260506015312 12 0.0 0.0 0.00 0.00 0.00 100 1008.5
20260506012308 12 0.0 0.0 0.00 0.00 0.00 100 1008.3
20260506005300 12 0.0 0.0 0.00 0.00 0.00 100 1008.5
20260506002254 12 0.0 0.0 0.00 0.00 0.00 100 1008.9
20260505235249 12 0.0 0.0 0.00 0.00 0.00 100 1009.0
20260505232243 12 0.0 0.0 0.00 0.00 0.00 100 1009.2
20260505225237 12 0.0 0.0 0.00 0.00 0.00 100 1009.4
20260505222231 12 0.0 0.0 0.00 0.00 0.00 100 1009.5
20260505215225 12 0.0 0.0 0.00 0.00 0.00 100 1009.3
20260505212219 12 0.0 0.0 0.00 0.00 0.00 100 1009.3
20260505205213 13 0.0 0.0 0.00 0.00 0.00 100 1009.3
20260505202207 13 0.0 0.0 0.00 0.00 0.00 100 1009.3